Find Starlink 1564

NORAD ID: 46058 Int'l Des: 2020-055 Owner: SPXS Country: US Constellation: starlink operational
LEOCIRCULAR

Live-Position

3D-Globus wird geladen...

Über Starlink 1564

Beschreibung wird geladen...

Nächste Überflüge

Passes for default location (London). Set your location on the main map for personalized predictions.

Höhenverlauf

Loading altitude history...

Zweizeiliger Elementsatz

1 46058U 20055AH 26126.61714839 .00003738 00000-0 13823-3 0 9992
2 46058 53.1590 205.3018 0001311 78.2973 281.8175 15.30211137317938
Epoch: 6. Mai 2026 • Age: 15 hours

Aktueller Status

Höhe 494.6 km
Geschwindigkeit 7.62 km/s
Subsatellitenpunkt -53.31°S, 155.86°E
Startdatum 7. Aug. 2020
Alter 5.7 years
Typ internet

Technische Details

Klassifizierung Payload
Masse 260.00 kg
Trockenmasse 248.00 kg
Gesamtmasse 260.00 kg
Länge 0.20 m
Durchmesser 2.80 m
Spannweite 9.00 m
Form Box + pan
Hersteller SPXS
Bus-Typ Starlink
Phasenstatus In Orbit
Besitzer/Staat SPXS/US

Most Searched